Temp
16 16 16 15 15 15 15 15 15 15 15 15 15 15 15 15 15 15 15 15 15 15 14 13 12 11 11 10 10 10 9 9 9 8 8 7 7 7 6 6 6 6 6
17 16 15 15 15 15 15 15 14 15 15 15 15 15 15 16 16 15 15 15 15 15 14 12 11 11 11 10 10 9 9 8 8 7 6 6 6 6 5 5 5 6 7
17 16 16 15 15 15 14 14 15 14 14 14 15 15 15 15 15 14 14 14 14 14 13 11 13 11 10 10 10 8 7 6 6 6 5 5 5 4 5 5 5 6 6
18 17 16 15 15 15 15 15 14 15 14 14 15 15 15 15 14 14 14 14 14 13 13 12 11 10 10 9 8 7 6 6 5 5 4 3 3 4 3 4 5 5 5
18 17 17 16 16 15 15 15 15 14 14 15 15 15 15 15 15 15 14 14 13 12 12 11 11 10 11 9 8 6 6 5 4 3 3 3 2 2 2 4 4 4 4
18 18 18 17 16 16 16 15 15 15 15 15 15 15 15 14 14 14 13 11 11 11 10 10 10 9 8 7 7 6 6 5 3 3 3 2 2 2 3 3 4 3 4
18 18 18 17 17 16 16 16 16 15 15 15 15 15 15 15 14 12 12 11 11 10 9 8 8 7 7 6 5 5 4 3 3 2 2 2 2 2 2 2 2 2 2
19 19 18 18 17 17 16 16 16 15 15 15 15 14 14 13 13 13 12 10 10 9 8 7 7 5 4 4 3 2 1 1 1 1 0 -0 -0 -0 -0 0 -0 -0 -0
20 19 19 18 17 17 17 16 16 15 14 13 13 12 12 12 11 11 10 8 7 5 4 4 4 3 2 3 2 0 -1 -1 -2 -2 -2 -2 -2 -2 -3 -3 -1 -0 -0
20 20 19 18 18 17 16 15 11 11 11 9 8 8 8 8 7 8 8 6 3 2 1 0 1 1 -0 -0 0 -1 -3 -4 -4 -4 -4 -4 -4 -4 -5 -5 -3 -2 -2
19 18 18 17 16 13 9 10 9 8 6 5 4 3 4 3 3 5 5 4 2 -1 -2 -2 -1 -1 -1 -1 -2 -3 -4 -4 -4 -4 -3 -3 -4 -4 -4 -5 -5 -4 -4
11 10 10 9 9 8 8 6 6 4 2 -0 -1 -2 -1 -0 1 1 2 2 -1 -2 -3 -3 -4 -4 -4 -5 -5 -5 -4 -5 -4 -4 -4 -4 -4 -4 -5 -5 -6 -6 -6
6 5 5 5 4 3 3 1 1 1 -1 -2 -3 -4 -4 -3 -3 -2 -1 -1 -1 -2 -3 -4 -5 -6 -6 -7 -7 -7 -7 -6 -6 -6 -5 -5 -6 -6 -7 -7 -7 -7 -7
3 2 2 2 1 1 1 1 -0 -1 -1 -2 -3 -4 -5 -5 -5 -4 -4 -5 -5 -5 -6 -6 -6 -6 -6 -7 -8 -8 -7 -7 -7 -7 -7 -7 -8 -8 -8 -8 -9 -8 -8
1 -0 -1 -1 -2 -2 -2 -2 -1 -1 -1 -2 -4 -4 -5 -6 -6 -6 -5 -6 -6 -6 -7 -7 -6 -6 -6 -6 -7 -7 -8 -8 -8 -8 -8 -9 -9 -9 -9 -9 -10 -9 -9
-0 -1 -2 -2 -3 -3 -4 -5 -4 -3 -2 -3 -4 -4 -6 -6 -6 -6 -6 -7 -7 -7 -6 -6 -6 -6 -6 -7 -7 -8 -9 -9 -10 -10 -11 -10 -10 -10 -10 -10 -10 -10 -9
-2 -2 -3 -3 -3 -4 -4 -4 -5 -6 -6 -6 -6 -6 -6 -6 -6 -7 -8 -8 -7 -7 -6 -6 -7 -7 -8 -8 -9 -9 -9 -11 -12 -11 -11 -11 -11 -11 -11 -11 -10 -10 -9
-4 -4 -4 -4 -4 -4 -5 -5 -5 -5 -5 -6 -6 -7 -7 -7 -7 -8 -8 -7 -7 -7 -7 -7 -8 -9 -9 -9 -10 -10 -11 -12 -12 -12 -12 -12 -12 -12 -12 -11 -11 -10 -10
-4 -4 -4 -4 -4 -4 -4 -5 -5 -6 -6 -7 -8 -8 -8 -8 -9 -9 -8 -7 -7 -8 -8 -9 -9 -10 -11 -11 -12 -12 -13 -13 -13 -13 -13 -13 -13 -13 -13 -12 -12 -12 -12
-6 -6 -6 -6 -6 -5 -5 -5 -6 -6 -7 -7 -8 -8 -8 -8 -8 -9 -9 -9 -9 -10 -10 -11 -11 -12 -12 -13 -13 -13 -13 -13 -14 -14 -14 -14 -14 -14 -14 -14 -13 -13 -13
-7 -7 -7 -7 -6 -6 -6 -6 -7 -7 -8 -9 -10 -11 -10 -9 -10 -10 -11 -11 -12 -12 -13 -13 -13 -13 -14 -14 -14 -15 -15 -15 -15 -16 -16 -15 -15 -15 -15 -15 -14 -14 -14
-7 -7 -7 -7 -7 -7 -7 -8 -8 -8 -9 -9 -11 -12 -11 -11 -11 -12 -13 -13 -14 -14 -14 -15 -15 -15 -15 -16 -17 -17 -17 -17 -17 -17 -17 -17 -16 -16 -16 -16 -15 -15 -14
-8 -8 -8 -9 -9 -9 -9 -10 -10 -10 -10 -11 -11 -12 -12 -13 -13 -13 -14 -15 -15 -16 -17 -17 -17 -17 -17 -18 -18 -18 -18 -18 -18 -18 -18 -18 -17 -17 -17 -17 -16 -15 -15
-10 -10 -10 -11 -10 -10 -11 -11 -12 -13 -12 -12 -13 -13 -14 -14 -15 -16 -16 -17 -17 -17 -18 -18 -19 -19 -20 -20 -20 -20 -19 -20 -20 -20 -19 -19 -19 -19 -18 -17 -17 -16 -16
-11 -12 -12 -12 -12 -12 -13 -13 -13 -13 -14 -14 -14 -15 -15 -15 -16 -16 -17 -18 -19 -19 -19 -20 -20 -20 -20 -21 -22 -22 -21 -22 -23 -23 -22 -21 -20 -20 -19 -18 -17 -16 -16
-13 -13 -13 -14 -14 -14 -14 -14 -15 -15 -15 -16 -16 -16 -17 -17 -17 -18 -18 -19 -19 -20 -20 -20 -20 -21 -22 -21 -21 -22 -23 -23 -24 -24 -24 -22 -21 -19 -18 -18 -17 -17 -17
Height
736 741 745 747 751 756 759 762 765 770 773 776 779 783 786 787 792 796 798 799 801 802 803 803 804 807 808 809 807 806 809 811 814 817 815 818 819 822 824 827 831 830 830
728 734 737 743 746 748 749 751 756 760 766 770 773 775 777 781 783 785 787 788 791 792 794 794 794 797 800 800 799 800 801 804 808 809 811 813 816 819 820 823 824 824 825
718 723 728 732 735 736 738 743 748 753 757 761 765 767 769 772 774 775 776 778 782 782 785 785 784 787 787 790 792 793 794 795 799 803 805 809 812 815 815 819 819 819 819
707 712 715 718 719 723 731 736 739 741 746 750 753 757 760 762 764 766 767 769 772 773 775 775 776 777 778 781 783 785 787 790 794 798 800 806 806 810 812 814 814 814 814
696 701 701 704 711 717 722 725 729 732 735 740 743 745 749 752 754 757 758 759 762 762 764 765 766 767 770 772 775 779 781 785 789 793 798 801 803 806 808 808 809 810 809
685 686 692 698 701 704 708 715 721 723 726 730 733 736 738 741 743 746 750 751 752 753 753 754 756 759 762 767 770 772 776 778 785 790 794 797 799 801 803 805 805 806 804
674 678 682 687 690 694 699 704 707 713 719 720 722 726 730 733 735 737 740 742 741 743 745 746 749 752 757 761 766 770 774 778 783 787 790 794 796 799 801 801 802 801 800
665 669 674 677 681 686 691 695 701 705 708 712 715 718 721 723 727 728 729 732 733 736 740 742 744 749 754 757 761 766 773 778 783 786 790 793 794 796 798 799 799 798 797
656 658 661 668 674 678 681 686 693 698 702 703 707 709 713 715 717 720 722 726 730 734 738 741 743 748 752 755 761 765 771 778 781 784 788 789 790 791 793 795 795 794 791
646 651 654 659 665 671 676 679 684 691 696 701 702 704 707 711 714 716 718 722 727 733 738 742 747 750 755 759 765 767 773 780 782 783 786 787 789 790 789 790 791 790 788
643 646 650 655 660 665 672 676 680 687 693 698 703 705 707 711 715 718 721 722 726 732 738 744 750 753 760 762 767 771 776 779 781 784 786 787 788 788 788 788 788 787 785
642 644 648 653 660 665 667 672 679 686 696 701 705 710 713 715 718 720 723 727 731 735 742 746 751 758 762 766 770 774 777 780 782 783 785 785 785 786 786 785 784 783 781
644 647 650 655 662 667 672 678 683 680 699 704 705 712 718 721 723 726 729 733 736 739 742 754 757 763 767 771 774 777 780 783 783 784 785 785 785 784 783 782 780 778 775
647 651 653 657 667 672 676 683 690 690 698 705 709 714 721 726 728 731 736 739 747 748 755 757 760 765 769 773 777 779 781 782 782 783 783 783 782 781 780 778 776 773 770
656 660 662 663 669 680 685 689 694 700 704 708 715 718 723 729 734 736 740 748 752 752 756 760 765 769 773 775 777 779 780 780 781 781 782 781 780 778 775 775 773 770 767
665 669 672 674 675 688 693 699 704 708 710 714 722 722 730 736 741 744 747 751 754 757 760 764 767 770 772 775 776 778 780 781 781 781 780 779 777 775 772 771 770 767 763
675 677 682 684 690 697 702 705 712 722 722 725 730 734 740 746 749 751 752 754 757 760 763 766 769 772 774 776 777 779 780 781 781 780 778 776 775 773 770 768 766 763 759
689 688 688 697 702 703 714 718 722 727 733 737 740 741 746 751 754 756 758 758 762 763 767 770 772 773 776 777 777 778 780 780 779 778 776 774 773 771 768 766 763 760 757
696 700 704 710 713 719 720 729 733 737 741 745 749 753 754 756 757 759 761 762 765 768 769 771 773 775 777 778 779 780 780 779 778 776 774 772 770 769 766 764 761 759 757
712 716 720 721 726 728 728 738 740 744 746 750 754 757 760 761 762 764 766 767 769 771 772 774 776 778 779 779 779 779 778 777 775 774 772 771 769 768 765 762 759 755 752
726 727 727 731 736 738 739 743 748 751 754 759 761 764 765 765 767 769 772 772 773 774 776 776 777 778 778 778 778 778 777 776 775 773 771 769 768 766 763 760 757 754 750
736 736 739 742 744 746 749 753 755 757 761 764 766 767 769 771 772 773 775 777 778 777 777 777 778 778 778 778 778 778 777 775 774 772 770 768 765 763 760 757 754 751 747
746 747 747 751 754 756 759 761 763 765 768 770 771 772 774 774 776 777 778 779 780 780 778 778 778 778 778 778 777 777 776 774 772 770 768 765 763 761 757 755 752 747 744
756 758 758 759 761 763 764 766 770 771 772 772 774 776 779 779 779 780 780 780 780 781 781 779 778 778 777 777 776 775 773 771 768 767 766 762 760 758 755 752 749 745 742
764 766 766 767 769 771 771 773 773 773 774 777 778 777 781 783 782 782 781 781 781 781 779 778 778 777 776 774 772 770 769 766 763 761 760 759 757 754 752 749 746 742 738
772 773 773 774 776 777 776 777 777 777 778 780 781 782 783 784 783 782 781 780 780 779 778 777 776 774 771 770 768 765 762 759 757 756 755 754 752 750 748 745 742 739 735
Wind_Speed
35 36 36 38 40 40 39 40 41 40 39 40 41 40 39 40 37 35 35 35 33 32 28 25 23 24 28 28 29 28 26 26 17 14 14 19 19 19 15 15 14 13 14
35 35 36 35 36 38 40 41 39 40 38 39 38 41 42 40 38 36 35 32 32 31 28 25 26 28 30 28 26 29 28 27 20 13 18 20 18 18 16 16 14 13 15
35 36 36 37 38 40 42 41 39 37 37 36 38 39 39 37 36 34 33 32 32 29 28 30 31 26 29 29 29 29 26 25 22 15 9 15 15 17 14 14 12 15 16
35 35 37 38 42 42 37 36 37 37 35 37 37 37 36 35 34 35 33 32 32 28 28 28 26 25 25 28 29 29 26 24 23 18 13 11 12 14 11 11 14 16 16
34 35 39 39 37 35 35 35 34 34 35 35 33 33 33 33 33 33 30 29 28 28 30 30 25 27 26 27 27 26 25 24 22 16 9 9 10 9 13 12 12 14 16
34 38 35 34 34 36 35 33 32 33 34 33 33 34 33 32 33 35 31 28 26 31 33 34 33 27 22 23 23 24 27 29 20 15 13 11 11 12 10 11 11 12 12
33 32 33 32 33 33 31 32 34 33 31 32 32 32 33 32 31 33 33 31 31 31 32 29 26 24 23 24 23 23 22 19 16 13 11 8 7 9 8 10 12 13 15
30 30 29 31 31 29 28 29 28 28 29 28 26 26 26 28 32 35 34 31 28 26 27 26 27 25 26 27 26 22 17 14 11 8 6 5 5 5 7 9 11 13 16
29 31 29 29 27 27 27 25 24 23 19 20 21 23 28 31 30 28 25 25 20 19 20 22 26 27 25 25 24 21 15 9 7 7 8 9 8 9 9 6 10 12 14
28 27 25 26 26 25 24 21 20 19 20 17 14 12 11 13 12 19 25 25 25 23 20 19 20 23 23 20 18 16 12 9 6 4 2 2 4 6 7 7 9 12 13
20 19 19 20 20 19 18 19 21 20 19 17 15 13 14 15 18 18 19 25 28 26 24 24 22 22 18 16 13 9 8 8 9 5 4 5 5 6 6 7 9 11 13
15 17 18 19 22 22 25 23 22 23 22 21 23 23 21 18 15 15 18 19 22 25 24 24 20 17 16 14 10 8 10 8 5 4 4 5 6 7 7 9 11 12 14
19 21 24 24 22 20 20 20 22 27 20 18 21 21 22 23 23 19 19 21 22 26 24 20 22 18 16 13 11 9 7 3 1 1 4 5 6 8 10 12 13 14 16
23 22 25 28 25 24 24 21 20 21 21 20 19 20 19 20 25 26 25 25 25 28 26 24 19 13 10 11 8 5 3 2 1 2 5 7 8 10 12 12 14 14 16
24 22 24 28 30 30 29 24 24 17 17 20 19 21 20 19 17 20 22 21 19 20 19 15 11 9 7 6 5 3 2 2 2 4 7 9 11 12 12 12 14 15 17
23 22 22 25 28 26 30 36 34 25 24 25 23 26 27 25 22 22 23 22 19 16 12 10 8 6 4 3 2 1 1 3 3 6 8 10 12 13 14 14 16 16 18
23 24 24 26 25 25 25 27 30 36 38 35 31 29 27 25 23 22 20 19 15 11 9 8 7 5 4 3 2 3 4 5 7 9 11 12 13 15 15 16 17 17 18
27 29 31 26 25 27 24 23 23 22 24 26 28 28 25 23 20 16 13 12 12 12 10 8 7 6 4 4 4 5 7 9 10 11 13 14 15 16 17 17 17 18 19
30 28 28 27 26 23 24 21 21 22 23 22 21 20 19 18 17 15 13 11 11 10 8 8 7 6 5 6 6 8 9 11 12 14 15 15 16 16 17 17 18 18 19
31 30 26 25 23 22 22 19 19 19 18 17 16 12 9 11 13 13 13 11 11 10 9 7 7 6 7 8 10 11 13 13 14 15 16 16 16 16 17 18 18 18 19
25 26 26 24 21 20 20 20 18 17 17 17 17 15 14 12 12 11 11 11 10 8 7 6 6 8 9 10 10 12 13 14 14 15 15 16 15 16 16 17 18 19 20
22 23 22 21 20 21 20 18 17 16 15 14 13 13 13 11 10 9 9 8 7 7 6 6 6 7 8 9 10 11 13 14 14 14 14 15 15 15 16 17 18 19 19
20 20 21 20 19 18 18 16 15 14 13 11 10 10 9 9 8 7 7 6 6 6 6 6 7 7 8 8 9 10 11 12 13 13 14 15 15 16 16 18 18 19 19
19 19 19 18 16 16 15 14 14 13 10 10 9 9 8 7 7 6 5 5 6 6 7 7 7 8 8 9 9 11 11 12 12 13 14 14 16 16 17 17 18 19 20
18 17 17 16 15 13 13 12 11 11 10 9 8 8 6 5 5 5 5 6 6 7 7 8 7 8 9 12 13 13 13 13 13 13 14 14 16 17 18 18 18 19 20
17 16 15 14 13 11 11 10 11 10 9 8 7 5 4 5 5 6 6 7 7 8 8 8 9 11 13 13 12 13 15 17 15 14 13 14 15 15 15 17 18 20 21
Wind_Direction
206 207 208 209 211 213 217 220 221 220 220 221 222 225 227 228 231 235 238 240 236 236 232 231 232 240 248 242 236 239 232 227 233 223 208 212 198 199 217 232 237 251 261
207 208 212 213 213 214 217 219 221 224 226 229 229 231 235 237 239 235 235 235 236 235 233 231 236 251 257 245 258 241 236 227 221 201 204 201 200 214 221 237 249 249 255
207 207 209 211 212 216 219 220 221 224 227 229 232 234 236 236 236 233 230 233 233 232 237 237 253 241 235 239 244 235 229 220 211 200 174 205 208 226 226 253 249 257 256
209 210 211 211 213 215 219 222 222 222 224 227 230 233 234 234 234 235 230 229 234 236 239 242 236 225 229 239 232 224 219 207 205 198 179 199 200 219 226 237 251 249 257
210 213 216 215 217 218 221 223 224 224 225 228 230 231 233 233 234 232 229 225 228 236 244 230 227 229 243 244 231 217 208 196 191 181 180 183 193 195 212 236 249 261 267
210 216 218 218 217 218 220 223 225 227 227 228 231 231 231 230 228 230 222 224 230 231 227 229 236 237 235 229 231 228 214 194 183 184 190 195 210 211 225 235 254 260 270
213 216 216 215 216 218 217 218 223 226 229 229 229 231 235 235 234 231 232 236 232 230 226 223 220 216 210 202 201 198 185 188 187 186 180 197 221 224 232 241 249 257 264
213 215 214 213 213 213 212 215 220 222 223 228 230 231 234 237 240 244 247 228 226 220 223 216 207 187 188 185 175 166 161 165 174 188 194 197 209 216 238 253 264 269 272
217 215 211 210 210 207 207 207 212 216 216 215 220 223 228 234 239 236 223 205 193 183 187 190 185 178 174 172 169 151 145 154 181 185 198 212 232 236 236 254 258 266 274
218 219 209 204 204 205 203 191 183 191 201 198 191 197 212 214 204 208 203 182 159 151 154 155 168 162 153 148 149 144 138 160 164 172 209 260 258 264 272 242 265 269 278
220 208 200 196 194 174 161 166 165 160 153 141 135 127 141 151 159 179 189 171 160 147 138 133 135 139 148 140 137 134 146 152 175 177 218 240 249 251 255 262 263 266 270
141 135 138 143 155 157 155 149 151 147 134 120 113 101 102 115 132 149 159 157 150 137 129 132 125 126 120 119 117 130 163 152 164 188 226 254 263 268 275 277 276 272 269
125 117 115 119 120 118 114 118 122 128 121 114 109 101 97 105 103 114 126 133 136 129 128 123 120 112 106 104 114 120 108 119 121 285 287 287 286 290 289 288 284 283 282
97 97 102 100 96 101 108 111 111 112 119 118 113 110 106 102 106 111 111 110 110 109 113 112 113 113 112 116 114 112 112 106 85 303 290 287 287 287 289 291 294 297 294
89 90 90 91 90 83 75 84 92 96 118 116 113 114 110 97 104 116 119 118 116 116 114 113 116 120 132 139 132 120 85 30 313 297 293 294 295 296 295 297 297 297 291
85 83 85 89 88 88 88 79 77 96 107 111 113 113 97 103 104 104 106 106 106 107 105 112 119 126 127 124 126 116 1 334 335 318 311 308 306 303 301 301 297 292 294
81 85 82 84 86 90 90 93 93 80 84 89 92 93 97 102 103 102 100 98 95 96 97 99 101 95 92 80 49 14 344 346 329 321 315 311 307 302 300 297 295 294 293
70 76 81 79 82 88 88 88 93 95 93 86 87 93 97 101 101 95 95 87 84 77 80 80 83 74 54 32 11 351 331 323 321 319 315 312 307 302 300 295 295 296 296
72 70 76 77 80 86 89 90 97 98 97 96 91 85 87 89 83 77 71 74 76 72 68 70 58 44 25 3 352 333 325 321 318 314 313 310 307 302 296 294 294 294 295
74 75 73 78 74 77 85 89 90 91 90 87 81 79 87 81 73 66 64 66 67 60 54 49 33 17 356 342 331 324 318 316 315 314 311 306 302 298 295 295 295 297 298
71 70 73 70 72 75 78 80 83 84 82 79 74 65 65 75 71 65 61 57 54 50 36 20 0 345 336 329 324 320 316 315 313 310 307 303 301 297 295 294 297 297 296
71 72 72 72 72 72 75 77 81 84 85 86 80 68 66 65 63 60 54 47 40 33 21 4 349 339 334 328 324 318 313 309 307 306 304 302 299 298 298 298 297 298 299
72 75 76 75 77 78 77 77 78 79 78 76 73 66 60 63 59 53 46 35 22 15 2 356 341 330 326 319 315 311 307 306 304 302 300 299 298 297 299 298 297 299 300
71 73 77 77 77 78 80 81 80 76 76 74 68 63 56 54 50 43 35 13 1 345 335 330 324 316 311 315 309 304 302 298 298 298 295 292 294 296 296 296 297 297 297
65 67 69 71 72 75 76 73 72 69 67 65 62 60 49 36 27 13 357 347 335 329 322 319 310 304 306 302 304 303 300 297 297 288 291 290 288 291 290 290 293 297 298
66 67 67 68 68 68 70 70 67 64 61 57 52 42 22 3 353 344 336 332 324 322 318 310 305 303 305 308 306 299 299 303 300 291 286 284 286 288 290 294 297 298 299